EDT,Max TemperatureF,Mean TemperatureF,Min TemperatureF,Max Dew PointF,MeanDew PointF,Min DewpointF,Max Humidity, Mean Humidity, Min Humidity, Max Sea Level PressureIn, Mean Sea Level PressureIn, Min Sea Level PressureIn, Max VisibilityMiles, Mean VisibilityMiles, Min VisibilityMiles, Max Wind SpeedMPH, Mean Wind SpeedMPH, Max Gust SpeedMPH,PrecipitationIn, CloudCover, Events, WindDirDegrees
2013-3-1,43,35,27,29,27,23,92,71,49,29.84,29.73,29.65,10,10,10,16,9,23,T,7,Rain,302
2013-3-2,38,34,30,22,21,18,69,61,52,29.84,29.80,29.76,10,10,10,20,11,24,0.00,8,,327
2013-3-3,37,31,24,18,17,15,68,56,44,29.83,29.78,29.74,10,10,10,22,12,28,T,7,,319
2013-3-4,40,34,28,21,17,13,61,51,40,29.97,29.88,29.83,10,10,9,22,12,30,T,6,Snow,301
2013-3-5,48,40,31,26,22,19,63,51,38,30.04,30.00,29.95,10,10,10,21,8,24,0.00,4,,10
2013-3-6,41,38,35,34,29,24,85,70,54,30.00,29.89,29.83,10,10,5,30,19,39,0.01,7,Rain,52
2013-3-7,47,41,34,26,24,22,64,53,42,30.12,30.06,29.99,10,10,10,20,13,25,T,8,,355
2013-3-8,44,38,31,26,24,21,72,62,51,30.27,30.14,30.07,10,9,3,25,13,35,T,6,Snow,333
2013-3-9,63,45,27,22,18,10,63,38,13,30.32,30.28,30.23,10,10,9,12,4,18,0.00,0,,329
2013-3-10,57,42,26,34,26,21,75,51,27,30.36,30.31,30.25,10,10,8,13,5,25,0.00,1,,125
2013-3-11,58,48,37,47,39,32,100,72,43,30.28,30.16,30.03,10,8,1,18,7,29,T,6,,141
2013-3-12,58,50,41,55,49,31,100,83,65,29.97,29.80,29.69,10,7,2,21,11,30,1.28,8,Rain,202
2013-3-13,48,38,28,30,25,20,85,64,42,29.94,29.89,29.84,10,10,10,23,11,33,T,4,,269
2013-3-14,42,36,29,17,12,7,58,43,27,30.01,29.96,29.91,10,10,10,29,15,40,T,4,,292
2013-3-15,49,35,20,29,20,11,73,57,41,30.02,29.89,29.73,10,10,10,26,11,35,0.00,5,,263
2013-3-16,43,37,30,30,27,22,85,71,56,29.94,29.82,29.77,10,5,0,16,5,22,0.11,7,Fog-Snow,56
2013-3-17,38,32,25,27,20,16,78,61,44,30.31,30.12,29.94,10,10,10,15,7,18,0.00,4,,345
2013-3-18,37,30,22,30,23,10,92,67,41,30.38,30.17,29.94,10,6,0,21,10,28,0.44,6,Fog-Rain-Snow,75
2013-3-19,49,41,33,35,30,17,100,69,37,29.93,29.80,29.70,10,6,1,25,8,36,0.11,6,Rain-Snow,348
2013-3-20,47,39,30,21,17,15,63,47,31,29.92,29.86,29.79,10,10,10,25,12,36,0.00,4,,265
2013-3-21,37,32,26,25,16,9,78,55,32,29.83,29.77,29.68,10,10,10,16,8,24,T,7,,330
2013-3-22,41,32,22,21,18,13,75,58,40,29.93,29.84,29.77,10,10,10,21,11,28,0.00,3,,271
2013-3-23,47,39,31,20,18,16,59,45,31,29.97,29.93,29.88,10,10,10,22,11,32,0.00,5,,292
2013-3-24,47,37,26,24,19,17,63,47,31,29.98,29.85,29.69,10,10,10,14,5,20,0.00,1,,21
2013-3-25,39,36,33,34,30,24,96,75,54,29.69,29.57,29.50,10,7,0,16,8,20,0.17,8,Fog-Rain-Snow,35
2013-3-26,51,40,29,33,30,24,96,66,35,29.91,29.78,29.65,10,10,10,20,8,26,0.01,6,Rain,278
2013-3-27,50,38,25,31,27,22,92,64,36,30.04,29.96,29.91,10,10,10,21,9,28,0.00,2,,292
2013-3-28,48,39,29,30,27,24,85,64,42,30.16,30.06,30.01,10,10,10,18,9,24,0.00,6,,304
2013-3-29,52,41,29,30,27,23,82,60,38,30.18,30.15,30.11,10,10,10,17,7,24,0.00,4,,291
2013-3-30,58,41,24,29,22,15,88,54,20,30.20,30.15,30.09,10,10,10,16,4,28,0.00,1,,285
2013-3-31,57,43,28,45,35,22,100,68,35,30.12,29.90,29.71,10,7,2,22,6,29,0.16,5,Rain,97